FW2726 Weather Reports


Display with metric or nautical units.
time (UTC)temp
F
wind
direction
speed
MPH
gust
MPH
rain 1hr
in
rain 24hr
in
rain mn
in
humidity
%
barometer
mb
20260902174612 75 120 15.0 25.0 0.00 0.00 0.00 55 1007.6
20260902173109 75 129 15.0 23.0 0.00 0.00 0.00 52 1007.6
20260902171610 75 128 15.0 30.0 0.00 0.00 0.00 51 1007.8
20260902170107 74 139 15.0 26.0 0.00 0.00 0.00 53 1007.8
20260902164609 73 176 16.0 24.0 0.00 0.00 0.00 55 1008.0
20260902163109 72 143 12.0 23.0 0.00 0.00 0.00 56 1008.0
20260902161608 72 126 15.0 25.0 0.00 0.00 0.00 56 1007.9
20260902160107 71 147 14.0 22.0 0.00 0.00 0.00 59 1008.0
20260902154617 69 145 14.0 22.0 0.00 0.00 0.00 59 1008.2
20260902153104 68 143 12.0 21.0 0.00 0.00 0.00 61 1008.0
20260902151608 67 148 12.0 22.0 0.00 0.00 0.00 65 1008.1
20260902150106 65 155 11.0 20.0 0.00 0.00 0.00 66 1008.2
20260902144607 63 160 13.0 20.0 0.00 0.00 0.00 68 1008.1
20260902143108 62 172 13.0 23.0 0.00 0.00 0.00 71 1008.4
20260902141617 60 151 13.0 22.0 0.00 0.00 0.00 73 1008.4
20260902140106 59 154 11.0 19.0 0.00 0.00 0.00 75 1008.5
20260902134608 58 154 11.0 19.0 0.00 0.00 0.00 77 1008.5
20260902133104 57 159 11.0 18.0 0.00 0.00 0.00 79 1008.5
20260902131609 56 152 10.0 16.0 0.00 0.00 0.00 81 1008.6
20260902130107 55 155 10.0 15.0 0.00 0.00 0.00 82 1008.7
20260902124606 54 150 8.0 12.0 0.00 0.00 0.00 83 1008.7
20260902123107 55 165 8.0 11.0 0.00 0.00 0.00 82 1008.8
20260902121606 55 155 8.0 14.0 0.00 0.00 0.00 82 1008.9
20260902120106 55 183 9.0 16.0 0.00 0.00 0.00 82 1009.0
20260902114606 56 155 10.0 15.0 0.00 0.00 0.00 81 1009.1
20260902113115 56 158 9.0 16.0 0.00 0.00 0.00 81 1009.2
20260902111605 56 165 10.0 17.0 0.00 0.00 0.00 81 1009.2
20260902110104 56 146 10.0 18.0 0.00 0.00 0.00 80 1009.2
20260902104605 57 156 10.0 18.0 0.00 0.00 0.00 79 1009.2
20260902103105 57 166 11.0 17.0 0.00 0.00 0.00 79 1009.2
20260902101623 57 170 12.0 19.0 0.00 0.00 0.00 80 1009.2
20260902094605 56 172 11.0 17.0 0.00 0.00 0.00 80 1009.5
20260902093104 56 147 10.0 16.0 0.00 0.00 0.00 79 1009.7
20260902091606 57 156 10.0 16.0 0.00 0.00 0.00 78 1009.7
20260902090128 57 168 9.0 16.0 0.00 0.00 0.00 77 1009.7
20260902084605 57 174 11.0 19.0 0.00 0.00 0.00 78 1009.8
20260902083117 57 176 10.0 18.0 0.00 0.00 0.00 79 1009.8
20260902081608 56 160 10.0 16.0 0.00 0.00 0.00 80 1010.0
20260902080111 56 156 11.0 16.0 0.00 0.00 0.00 81 1010.0
20260902074609 56 147 8.0 15.0 0.00 0.00 0.00 81 1010.2
20260902073105 57 148 8.0 13.0 0.00 0.00 0.00 80 1010.3
20260902071606 57 138 9.0 15.0 0.00 0.00 0.00 79 1010.2
20260902070111 57 166 9.0 15.0 0.00 0.00 0.00 79 1010.3
20260902064608 58 158 9.0 14.0 0.00 0.00 0.00 78 1010.3
20260902063107 58 165 10.0 18.0 0.00 0.00 0.00 79 1010.4
20260902061625 58 142 11.0 20.0 0.00 0.00 0.00 79 1010.4
20260902060109 58 167 11.0 18.0 0.00 0.00 0.00 79 1010.4
20260902054606 57 123 11.0 17.0 0.00 0.00 0.00 79 1010.4
20260902053105 56 145 10.0 16.0 0.00 0.00 0.00 80 1010.5
20260902051605 56 154 10.0 15.0 0.00 0.00 0.00 79 1010.5
20260902050108 56 143 9.0 14.0 0.00 0.00 0.00 77 1010.6
20260902044613 56 138 9.0 14.0 0.00 0.00 0.00 77 1010.7
20260902043104 56 141 9.0 15.0 0.00 0.00 0.00 77 1010.5
20260902041610 56 149 8.0 13.0 0.00 0.00 0.00 78 1010.7
20260902040108 56 141 8.0 12.0 0.00 0.00 0.00 79 1010.7
20260902034607 56 134 8.0 14.0 0.00 0.00 0.00 79 1010.4
20260902033112 57 144 7.0 12.0 0.00 0.00 0.00 78 1010.3
20260902031609 57 140 8.0 12.0 0.00 0.00 0.00 77 1010.4
20260902030116 57 125 7.0 11.0 0.00 0.00 0.00 76 1010.2
20260902024609 58 144 6.0 10.0 0.00 0.00 0.00 75 1010.2
20260902023115 60 139 6.0 10.0 0.00 0.00 0.00 72 1010.1
20260902021621 61 135 5.0 8.0 0.00 0.00 0.00 69 1010.1
20260902020104 63 131 6.0 8.0 0.00 0.00 0.00 66 1010.2
20260902014604 66 119 4.0 7.0 0.00 0.00 0.00 62 1010.2
20260902013117 69 133 4.0 7.0 0.00 0.00 0.00 58 1010.2
20260902011605 71 139 4.0 9.0 0.00 0.00 0.00 54 1010.2
20260902010105 74 147 6.0 11.0 0.00 0.00 0.00 50 1010.3
20260902004614 75 145 7.0 12.0 0.00 0.00 0.00 51 1010.3
20260902003110 75 139 8.0 14.0 0.00 0.00 0.00 49 1010.3
20260902001606 75 158 8.0 12.0 0.00 0.00 0.00 49 1010.4
20260902000105 76 166 8.0 14.0 0.00 0.00 0.00 47 1010.4
20260901234617 77 133 8.0 14.0 0.00 0.00 0.00 46 1010.3
20260901233107 78 168 8.0 14.0 0.00 0.00 0.00 45 1010.4
20260901231605 78 127 8.0 14.0 0.00 0.00 0.00 48 1010.5
20260901230139 78 142 8.0 13.0 0.00 0.00 0.00 41 1010.5
20260901224605 79 165 9.0 15.0 0.00 0.00 0.00 42 1010.6
20260901223120 79 142 9.0 15.0 0.00 0.00 0.00 42 1010.5
20260901221605 79 118 8.0 15.0 0.00 0.00 0.00 41 1010.6
20260901220108 79 158 6.0 12.0 0.00 0.00 0.00 42 1010.7
20260901214606 79 141 7.0 17.0 0.00 0.00 0.00 42 1010.9
20260901213103 79 127 9.0 16.0 0.00 0.00 0.00 41 1011.0
20260901211604 78 160 8.0 14.0 0.00 0.00 0.00 42 1011.2
20260901210106 78 201 6.0 12.0 0.00 0.00 0.00 43 1011.3
20260901204605 77 185 5.0 10.0 0.00 0.00 0.00 37 1011.3
20260901203123 77 201 1.0 9.0 0.00 0.00 0.00 37 1011.4
20260901201612 76 231 3.0 9.0 0.00 0.00 0.00 39 1011.5
20260901200109 76 178 6.0 12.0 0.00 0.00 0.00 40 1011.6
20260901194608 76 139 4.0 12.0 0.00 0.00 0.00 42 1011.6
20260901193109 75 222 7.0 13.0 0.00 0.00 0.00 46 1011.8
20260901191604 74 189 7.0 14.0 0.00 0.00 0.00 42 1011.9
20260901190112 73 236 6.0 12.0 0.00 0.00 0.00 49 1012.1
20260901184604 72 204 6.0 11.0 0.00 0.00 0.00 46 1012.4
20260901183110 72 244 6.0 12.0 0.00 0.00 0.00 51 1012.4
20260901181608 71 199 8.0 14.0 0.00 0.00 0.00 53 1012.4
20260901180107 71 185 5.0 11.0 0.00 0.00 0.00 54 1012.5